Location: Poughquag
(41.6090°N, 73.6820°W)
Time: 19:20:27
(UTC-04:00)

MOZHAYETS 4 - Pass Details

Date: 15 August 2024
Orbit: 650 x 668 km, 98.3° (Epoch: 15 September)

Event Time Altitude Azimuth Distance (km) Brightness Sun altitude
Rises 02:50:52 0° 109° (ESE) 3,007 11.2 -28.8°
Reaches altitude 10° 02:54:57 10° 73° (ENE) 2,101 10.8 -28.4°
Maximum altitude 02:56:01 11° 59° (ENE) 2,053 11.0 -28.3°
Drops below altitude 10° 02:57:04 10° 46° (NE) 2,104 11.2 -28.2°
Sets 03:01:10 0° 10° (N) 3,024 12.1 -27.8°
